DW6004 Weather Reports


time (UTC)temp
C
wind
direction
speed
KPH
gust
KPH
rain 1hr
cm
rain 24hr
cm
rain mn
cm
humidity
%
barometer
mb
20260509053503 10 0 0.0 0.0 0.00 0.05 0.00 75 1012.1
20260509053003 10 0 0.0 0.0 0.00 0.05 0.00 74 1012.2
20260509052503 10 0 0.0 0.0 0.00 0.05 0.00 74 1012.1
20260509052004 10 324 0.0 4.8 0.00 0.05 0.00 73 1012.1
20260509051504 10 318 1.6 6.4 0.00 0.05 0.00 73 1011.8
20260509051003 10 305 1.6 6.4 0.00 0.05 0.00 72 1011.9
20260509050503 10 263 0.0 3.2 0.00 0.05 0.00 72 1011.7
20260509050025 10 262 0.0 3.2 0.00 0.05 0.00 71 1012.0
20260509045503 10 0 0.0 0.0 0.00 0.05 0.00 70 1012.0
20260509045003 10 0 0.0 0.0 0.00 0.05 0.00 70 1011.9
20260509044504 10 0 0.0 0.0 0.00 0.05 0.00 69 1012.0
20260509044003 10 0 0.0 0.0 0.00 0.05 0.00 69 1012.1
20260509043503 10 0 0.0 0.0 0.00 0.05 0.00 68 1012.1
20260509043003 11 0 0.0 0.0 0.00 0.05 0.00 68 1012.2
20260509042524 11 0 0.0 0.0 0.00 0.05 0.00 67 1011.8
20260509042004 11 0 0.0 0.0 0.00 0.05 0.00 67 1012.0
20260509041504 11 0 0.0 0.0 0.00 0.05 0.00 66 1011.8
20260509041003 11 0 0.0 0.0 0.00 0.05 0.00 66 1011.7
20260509040504 11 0 0.0 0.0 0.00 0.05 0.00 66 1012.1
20260509040004 12 0 0.0 0.0 0.00 0.05 0.00 65 1011.9
20260509035503 12 0 0.0 0.0 0.00 0.05 0.05 65 1012.2
20260509035003 12 0 0.0 0.0 0.00 0.05 0.05 65 1012.2
20260509034503 12 256 0.0 1.6 0.00 0.05 0.05 65 1012.1
20260509034003 12 256 0.0 3.2 0.00 0.05 0.05 66 1012.3
20260509033503 12 256 0.0 4.8 0.00 0.05 0.05 66 1011.8
20260509033024 12 257 0.0 4.8 0.00 0.05 0.05 66 1012.3
20260509032503 12 257 0.0 4.8 0.00 0.05 0.05 66 1012.1
20260509032003 12 257 0.0 4.8 0.00 0.05 0.05 66 1012.1
20260509031524 12 262 0.0 4.8 0.00 0.05 0.05 66 1012.3
20260509031003 12 263 1.6 4.8 0.00 0.05 0.05 66 1012.4
20260509030525 11 264 0.0 4.8 0.00 0.05 0.05 67 1012.2
20260509030004 11 273 0.0 1.6 0.00 0.05 0.05 66 1012.1
20260509025504 11 0 0.0 0.0 0.00 0.05 0.05 66 1012.3
20260509025004 11 0 0.0 0.0 0.00 0.05 0.05 66 1012.3
20260509024503 11 0 0.0 0.0 0.00 0.05 0.05 66 1012.4
20260509024024 11 0 0.0 0.0 0.00 0.05 0.05 66 1012.1
20260509023504 11 0 0.0 0.0 0.00 0.05 0.05 65 1012.0
20260509023003 11 0 0.0 0.0 0.00 0.05 0.05 65 1012.0
20260509022504 11 0 0.0 0.0 0.00 0.05 0.05 65 1012.1
20260509022004 11 0 0.0 0.0 0.00 0.05 0.05 66 1011.9
20260509021503 11 0 0.0 0.0 0.00 0.05 0.05 65 1011.8
20260509021025 11 0 0.0 0.0 0.00 0.05 0.05 65 1011.8
20260509020524 11 0 0.0 0.0 0.00 0.05 0.05 65 1011.8
20260509020025 11 0 0.0 0.0 0.00 0.05 0.05 65 1011.7
20260509015503 11 0 0.0 0.0 0.00 0.05 0.05 65 1011.9
20260509015003 11 0 0.0 0.0 0.00 0.05 0.05 65 1011.9
20260509014504 11 0 0.0 0.0 0.00 0.05 0.05 64 1011.8
20260509014003 11 0 0.0 0.0 0.00 0.05 0.05 64 1011.5
20260509013503 11 0 0.0 0.0 0.00 0.05 0.05 64 1011.6
20260509013004 11 0 0.0 0.0 0.00 0.05 0.05 63 1011.5
20260509012503 11 0 0.0 0.0 0.00 0.05 0.05 63 1011.5
20260509012003 11 0 0.0 0.0 0.00 0.05 0.05 62 1011.3
20260509011504 11 0 0.0 0.0 0.00 0.05 0.05 62 1011.1
20260509011003 12 0 0.0 0.0 0.00 0.05 0.05 61 1011.0
20260509010504 12 0 0.0 0.0 0.00 0.05 0.05 61 1011.1
20260509010025 12 0 0.0 0.0 0.00 0.05 0.05 60 1011.1
20260509005525 12 0 0.0 0.0 0.00 0.05 0.05 60 1010.9
20260509005003 12 0 0.0 0.0 0.00 0.05 0.05 60 1010.7
20260509004503 12 0 0.0 0.0 0.00 0.05 0.05 59 1010.8
20260509004003 12 0 0.0 0.0 0.00 0.05 0.05 59 1010.8
20260509003503 12 0 0.0 0.0 0.00 0.05 0.05 58 1010.8
20260509003024 13 0 0.0 0.0 0.00 0.05 0.05 58 1010.7
20260509002504 13 0 0.0 0.0 0.00 0.05 0.05 57 1010.6
20260509002003 13 0 0.0 0.0 0.00 0.05 0.05 57 1010.5
20260509001503 13 0 0.0 0.0 0.00 0.05 0.05 56 1010.5
20260509001004 13 0 0.0 0.0 0.00 0.05 0.05 56 1010.5
20260509000524 13 289 0.0 3.2 0.00 0.05 0.05 55 1010.6
20260509000003 13 289 0.0 4.8 0.00 0.05 0.05 55 1010.4
20260508235504 13 288 1.6 4.8 0.00 0.05 0.05 55 1010.6
20260508235003 13 287 0.0 3.2 0.00 0.05 0.05 55 1010.6
20260508234504 14 311 1.6 4.8 0.00 0.05 0.05 54 1010.7
20260508234003 14 302 1.6 4.8 0.00 0.05 0.05 54 1010.9
20260508233504 14 296 1.6 6.4 0.00 0.05 0.05 54 1010.6
20260508233024 14 289 1.6 6.4 0.00 0.05 0.05 53 1010.5
20260508232503 15 274 3.2 6.4 0.00 0.05 0.05 53 1010.2
20260508232003 15 283 3.2 9.7 0.00 0.05 0.05 52 1010.5
20260508231503 15 293 1.6 9.7 0.00 0.05 0.05 52 1010.3
20260508231024 15 269 1.6 9.7 0.00 0.05 0.05 52 1010.5
20260508230504 15 278 1.6 9.7 0.00 0.05 0.05 52 1010.6
20260508230024 15 281 3.2 6.4 0.00 0.05 0.05 51 1010.4
20260508225503 15 269 1.6 6.4 0.00 0.05 0.05 52 1010.3
20260508225024 15 262 1.6 4.8 0.00 0.05 0.05 53 1010.4
20260508224503 15 263 3.2 11.3 0.00 0.05 0.05 52 1010.4
20260508224024 15 270 3.2 11.3 0.00 0.05 0.05 51 1010.4
20260508223503 15 271 1.6 9.7 0.00 0.05 0.05 51 1010.3
20260508223003 15 273 3.2 9.7 0.00 0.05 0.05 51 1010.4
20260508222504 16 281 3.2 9.7 0.00 0.05 0.05 51 1010.3
20260508222024 16 271 3.2 12.9 0.00 0.05 0.05 51 1010.2
20260508221504 16 288 4.8 14.5 0.00 0.05 0.05 51 1010.4
20260508221003 16 296 4.8 14.5 0.00 0.05 0.05 51 1010.2
20260508220504 16 285 4.8 11.3 0.00 0.05 0.05 51 1010.4
20260508220004 16 320 4.8 17.7 0.00 0.05 0.05 50 1010.3
20260508215504 16 321 6.4 17.7 0.00 0.05 0.05 53 1010.2
20260508215003 16 326 6.4 17.7 0.00 0.05 0.05 52 1010.2
20260508214503 16 336 8.0 17.7 0.00 0.05 0.05 52 1010.2
20260508214004 16 315 8.0 17.7 0.00 0.05 0.05 51 1010.4
20260508213503 16 278 8.0 20.9 0.00 0.05 0.05 53 1010.3
20260508213004 16 275 8.0 20.9 0.00 0.05 0.05 52 1010.5
20260508212524 16 302 8.0 22.5 0.00 0.05 0.05 52 1010.3
20260508212004 16 314 8.0 22.5 0.00 0.05 0.05 53 1010.5
20260508211503 15 306 8.0 20.9 0.00 0.05 0.05 55 1010.4
20260508211003 15 298 8.0 24.1 0.00 0.05 0.05 54 1010.6
20260508210504 15 300 8.0 24.1 0.00 0.05 0.05 52 1010.6
20260508210003 16 295 8.0 20.9 0.00 0.05 0.05 52 1010.8
20260508205503 15 293 8.0 17.7 0.00 0.05 0.05 52 1010.6
20260508205004 16 321 8.0 17.7 0.00 0.05 0.05 52 1010.6
20260508204503 15 336 6.4 16.1 0.00 0.05 0.05 54 1010.5
20260508204025 15 311 6.4 14.5 0.00 0.05 0.05 54 1010.6
20260508203503 15 300 6.4 16.1 0.00 0.05 0.05 53 1010.7
20260508203025 15 323 8.0 16.1 0.00 0.05 0.05 52 1010.7
20260508202504 15 343 8.0 20.9 0.00 0.05 0.05 52 1010.6
20260508202003 16 347 8.0 20.9 0.00 0.05 0.05 51 1010.4
20260508201504 16 332 8.0 22.5 0.00 0.05 0.05 52 1010.6
20260508201004 15 322 8.0 22.5 0.00 0.05 0.05 52 1010.4
20260508200503 15 334 6.4 16.1 0.00 0.05 0.05 52 1010.3
20260508200003 15 336 6.4 16.1 0.00 0.05 0.05 52 1010.4
20260508195525 15 313 4.8 16.1 0.00 0.05 0.05 51 1010.2
20260508195004 15 303 6.4 16.1 0.00 0.05 0.05 50 1010.4
20260508194503 16 329 8.0 17.7 0.00 0.05 0.05 51 1010.3
20260508194004 16 327 8.0 17.7 0.00 0.05 0.05 49 1010.3
20260508193503 16 312 8.0 25.7 0.00 0.05 0.05 48 1010.3
20260508193025 16 301 8.0 25.7 0.00 0.05 0.05 46 1010.5
20260508192503 16 296 9.7 24.1 0.00 0.05 0.05 46 1010.4
20260508192004 16 309 11.3 24.1 0.00 0.05 0.05 46 1010.4
20260508191504 16 319 9.7 24.1 0.00 0.05 0.05 45 1010.3
20260508191004 16 325 9.7 25.7 0.00 0.05 0.05 49 1010.2
20260508190503 16 298 9.7 25.7 0.00 0.05 0.05 46 1010.7
20260508190003 16 271 9.7 22.5 0.00 0.05 0.05 44 1010.5
20260508185504 16 271 11.3 33.8 0.00 0.05 0.05 44 1010.7
20260508185004 16 268 12.9 33.8 0.00 0.05 0.05 43 1010.5
20260508184504 15 270 11.3 25.7 0.00 0.05 0.05 42 1010.6
20260508184003 15 266 8.0 25.7 0.00 0.05 0.05 43 1010.5
20260508183504 15 248 8.0 25.7 0.00 0.05 0.05 43 1010.3
20260508183004 15 239 11.3 29.0 0.00 0.05 0.05 41 1010.6
20260508182503 16 240 14.5 37.0 0.00 0.05 0.05 43 1010.5
20260508182003 16 255 12.9 37.0 0.00 0.05 0.05 41 1010.4
20260508181503 16 253 12.9 35.4 0.00 0.05 0.05 40 1010.0
20260508181003 16 233 16.1 35.4 0.00 0.05 0.05 40 1010.4
20260508180503 17 235 16.1 30.6 0.00 0.05 0.05 41 1010.1
20260508180004 16 248 14.5 33.8 0.00 0.05 0.05 41 1010.2
20260508175503 16 244 12.9 33.8 0.00 0.05 0.05 41 1010.2
20260508175003 16 239 12.9 37.0 0.00 0.05 0.05 43 1010.2
20260508174524 16 237 14.5 37.0 0.00 0.05 0.05 44 1010.4
20260508174003 16 244 14.5 37.0 0.00 0.05 0.05 40 1010.4
20260508173503 16 244 11.3 33.8 0.00 0.05 0.05 41 1010.3
20260508173004 16 223 11.3 30.6 0.00 0.05 0.05 41 1010.3
20260508172504 16 220 12.9 37.0 0.00 0.05 0.05 41 1010.6
20260508172004 16 238 12.9 37.0 0.00 0.05 0.05 45 1010.6
20260508171504 16 239 14.5 30.6 0.00 0.05 0.05 43 1010.5
20260508171003 16 232 16.1 54.7 0.00 0.05 0.05 44 1010.6
20260508170503 16 236 16.1 54.7 0.00 0.05 0.05 42 1010.7
20260508170004 16 246 14.5 30.6 0.00 0.05 0.05 43 1010.5
20260508165525 16 248 16.1 33.8 0.00 0.05 0.05 47 1011.0
20260508165025 16 241 17.7 33.8 0.00 0.05 0.05 44 1011.0
20260508164503 15 238 17.7 30.6 0.00 0.05 0.05 45 1010.8
20260508164004 15 249 14.5 41.8 0.00 0.05 0.05 44 1011.1
20260508163524 16 254 12.9 41.8 0.00 0.05 0.05 43 1011.0
20260508163003 15 247 11.3 27.4 0.00 0.05 0.05 45 1011.2
20260508162503 15 239 11.3 33.8 0.00 0.05 0.05 45 1010.9
20260508162003 15 245 14.5 33.8 0.00 0.05 0.05 42 1011.1
20260508161503 15 244 12.9 33.8 0.00 0.05 0.05 43 1011.2
20260508161003 15 239 11.3 27.4 0.00 0.05 0.05 44 1011.3
20260508160525 14 246 12.9 27.4 0.00 0.05 0.05 44 1011.1
20260508160004 14 251 16.1 40.2 0.00 0.05 0.05 43 1011.3
20260508155504 14 255 16.1 40.2 0.00 0.05 0.05 42 1011.5
20260508155004 14 260 16.1 33.8 0.00 0.05 0.05 43 1011.4
20260508154525 14 260 14.5 29.0 0.00 0.05 0.05 43 1011.3
20260508154003 15 257 11.3 24.1 0.00 0.05 0.05 43 1011.4
20260508153524 15 240 11.3 22.5 0.00 0.05 0.05 41 1011.4
20260508153004 15 229 11.3 27.4 0.00 0.05 0.05 42 1011.4
20260508152503 15 248 11.3 27.4 0.00 0.05 0.05 41 1011.3
20260508152003 15 274 8.0 27.4 0.00 0.05 0.05 41 1011.1
20260508151504 15 271 8.0 24.1 0.00 0.05 0.05 43 1011.0
20260508151004 15 256 9.7 24.1 0.00 0.05 0.05 43 1011.3
20260508150503 15 247 8.0 16.1 0.00 0.05 0.05 42 1011.2
20260508150024 15 249 6.4 16.1 0.00 0.05 0.05 42 1011.0
20260508145504 15 262 4.8 17.7 0.00 0.05 0.05 43 1011.3
20260508145004 14 273 4.8 17.7 0.00 0.05 0.05 43 1011.2
20260508144504 14 277 6.4 20.9 0.00 0.05 0.05 44 1011.0
20260508144003 14 269 9.7 25.7 0.00 0.05 0.05 41 1011.3
20260508143504 15 267 9.7 25.7 0.00 0.05 0.05 41 1011.6
20260508143004 15 250 8.0 22.5 0.00 0.05 0.05 42 1011.4
20260508142524 15 244 6.4 14.5 0.00 0.05 0.05 50 1011.3
20260508142003 14 257 6.4 17.7 0.00 0.05 0.05 45 1011.5
20260508141524 14 253 8.0 17.7 0.00 0.05 0.05 47 1011.5
20260508141003 14 272 6.4 14.5 0.00 0.05 0.05 48 1011.6
20260508140503 13 279 4.8 14.5 0.00 0.05 0.05 50 1011.9
20260508140003 13 256 8.0 17.7 0.00 0.05 0.05 47 1011.6
20260508135503 13 254 8.0 17.7 0.00 0.05 0.05 53 1011.6
20260508135003 13 253 9.7 22.5 0.00 0.05 0.05 49 1011.8
20260508134504 13 243 9.7 22.5 0.00 0.05 0.05 49 1011.6
20260508134024 13 243 6.4 20.9 0.00 0.05 0.05 51 1011.7
20260508133503 13 261 4.8 17.7 0.00 0.05 0.05 56 1011.7
20260508133004 12 262 8.0 17.7 0.00 0.05 0.05 54 1011.5
20260508132504 12 257 9.7 20.9 0.00 0.05 0.05 55 1011.6
20260508132003 12 257 8.0 20.9 0.00 0.05 0.05 55 1011.7
20260508131503 12 274 4.8 14.5 0.00 0.05 0.05 57 1011.8
20260508131025 12 294 4.8 14.5 0.00 0.05 0.05 58 1011.7
20260508130504 12 310 6.4 17.7 0.00 0.05 0.05 59 1011.6
20260508130004 12 317 8.0 17.7 0.00 0.05 0.05 59 1011.6
20260508125503 12 316 8.0 16.1 0.00 0.05 0.05 59 1011.7
20260508125004 12 299 6.4 16.1 0.00 0.05 0.05 60 1011.7
20260508124503 11 271 4.8 12.9 0.00 0.05 0.05 63 1011.7
20260508124003 11 268 6.4 16.1 0.00 0.05 0.05 63 1011.5
20260508123504 11 268 6.4 16.1 0.00 0.05 0.05 62 1011.7
20260508123003 11 269 6.4 16.1 0.00 0.05 0.05 64 1011.7
20260508122503 11 252 8.0 16.1 0.00 0.05 0.05 66 1011.9
20260508122004 11 243 6.4 16.1 0.00 0.05 0.05 70 1012.1
20260508121524 10 245 4.8 14.5 0.00 0.05 0.05 70 1012.1
20260508121004 10 251 4.8 14.5 0.00 0.05 0.05 70 1011.9
20260508120525 10 252 4.8 14.5 0.00 0.05 0.05 72 1011.8
20260508120004 10 257 6.4 14.5 0.00 0.05 0.05 74 1012.0
20260508115503 10 262 6.4 14.5 0.00 0.05 0.05 74 1011.9
20260508115024 10 266 6.4 12.9 0.00 0.05 0.05 75 1012.0
20260508114504 9 261 4.8 12.9 0.00 0.05 0.05 76 1011.8
20260508114003 9 257 4.8 12.9 0.00 0.05 0.05 77 1012.0
20260508113503 8 254 4.8 12.9 0.00 0.05 0.05 79 1011.8
20260508113024 8 265 4.8 9.7 0.00 0.05 0.05 80 1011.7
20260508112524 8 267 6.4 14.5 0.00 0.05 0.05 81 1011.8
20260508112003 8 250 8.0 14.5 0.00 0.05 0.05 81 1011.7
20260508111503 8 262 6.4 12.9 0.00 0.05 0.05 83 1011.7
20260508111003 7 278 4.8 12.9 0.00 0.05 0.05 84 1011.7
20260508110503 7 270 3.2 11.3 0.00 0.05 0.05 84 1011.8
20260508110003 7 274 3.2 11.3 0.00 0.05 0.05 85 1011.6
20260508105503 7 271 4.8 11.3 0.00 0.05 0.05 86 1011.6
20260508105004 7 267 4.8 11.3 0.00 0.05 0.05 86 1011.7
20260508104503 7 269 4.8 11.3 0.00 0.05 0.05 86 1011.4
20260508104003 6 273 3.2 6.4 0.00 0.05 0.05 85 1011.6
20260508103503 6 272 1.6 6.4 0.00 0.05 0.05 84 1011.4
20260508103024 6 279 1.6 6.4 0.00 0.05 0.05 84 1011.1
20260508102503 6 291 3.2 6.4 0.00 0.05 0.05 84 1011.3
20260508102024 6 294 1.6 6.4 0.00 0.05 0.05 84 1011.2
20260508101503 6 279 1.6 6.4 0.00 0.05 0.05 83 1011.1
20260508101004 6 273 1.6 6.4 0.00 0.05 0.05 83 1011.0
20260508100524 6 268 1.6 4.8 0.00 0.05 0.05 82 1011.0
20260508100004 6 266 1.6 4.8 0.00 0.05 0.05 82 1010.9
20260508095503 6 266 1.6 4.8 0.00 0.05 0.05 81 1011.0
20260508095004 7 266 1.6 4.8 0.00 0.05 0.05 80 1010.9
20260508094503 7 267 1.6 4.8 0.00 0.05 0.05 80 1010.9
20260508094004 7 267 1.6 3.2 0.00 0.05 0.05 80 1010.8
20260508093503 7 268 1.6 3.2 0.00 0.05 0.05 79 1010.9
20260508093004 7 268 0.0 3.2 0.03 0.05 0.05 79 1010.8
20260508092503 7 0 0.0 0.0 0.05 0.05 0.05 79 1010.8
20260508092004 7 0 0.0 0.0 0.05 0.05 0.05 79 1010.9
20260508091524 7 0 0.0 0.0 0.05 0.05 0.05 79 1010.9
20260508091003 7 0 0.0 0.0 0.05 0.05 0.05 78 1010.9
20260508090503 7 0 0.0 0.0 0.05 0.05 0.05 78 1010.8
20260508090003 8 0 0.0 0.0 0.05 0.05 0.05 77 1010.7
20260508085503 8 0 0.0 0.0 0.05 0.05 0.05 77 1010.5
20260508085024 8 0 0.0 0.0 0.05 0.05 0.05 77 1010.9
20260508084503 8 297 0.0 3.2 0.05 0.05 0.05 77 1010.7
20260508084004 8 297 0.0 3.2 0.05 0.05 0.05 77 1010.6
20260508083503 8 271 0.0 3.2 0.05 0.05 0.05 76 1010.4
20260508083003 8 274 1.6 4.8 0.03 0.03 0.03 76 1010.2
20260508082504 8 279 1.6 4.8 0.00 0.00 0.00 76 1010.9
20260508082003 8 272 1.6 6.4 0.00 0.00 0.00 76 1010.8
20260508081503 8 275 1.6 6.4 0.00 0.00 0.00 76 1010.8
20260508081004 8 288 1.6 3.2 0.00 0.03 0.00 76 1010.7
20260508080503 8 294 1.6 9.7 0.00 0.05 0.00 76 1010.8
20260508080003 8 312 3.2 9.7 0.00 0.05 0.00 76 1010.7
20260508075524 8 344 3.2 9.7 0.00 0.05 0.00 76 1010.3
20260508075003 8 334 6.4 14.5 0.00 0.08 0.00 76 1010.1
20260508074503 8 327 6.4 14.5 0.00 0.10 0.00 76 1010.1
20260508074004 8 334 6.4 16.1 0.00 0.10 0.00 76 1010.5
20260508073503 8 339 6.4 16.1 0.00 0.13 0.00 76 1010.5
20260508073003 8 343 4.8 16.1 0.00 0.15 0.00 76 1010.1
20260508072503 8 346 6.4 14.5 0.00 0.15 0.00 76 1010.3
20260508072003 8 350 8.0 14.5 0.00 0.18 0.00 75 1010.2
20260508071503 8 345 8.0 14.5 0.00 0.18 0.00 75 1010.5
20260508071003 8 338 6.4 14.5 0.00 0.18 0.00 75 1010.4
20260508070503 8 349 6.4 14.5 0.00 0.18 0.00 74 1010.6
20260508070003 8 1 6.4 14.5 0.00 0.20 0.00 73 1010.6
20260508065524 9 5 4.8 12.9 0.00 0.20 0.00 73 1010.3
20260508065003 9 1 4.8 12.9 0.00 0.23 0.00 71 1010.4
20260508064503 9 345 4.8 12.9 0.00 0.23 0.00 71 1010.4
20260508064003 9 332 4.8 12.9 0.00 0.28 0.00 70 1010.7
20260508063503 9 321 6.4 16.1 0.00 0.28 0.00 69 1010.7
20260508063003 9 321 8.0 16.1 0.00 0.30 0.00 69 1010.7
20260508062503 10 333 8.0 16.1 0.00 0.33 0.00 67 1010.9
20260508062004 10 334 8.0 16.1 0.00 0.36 0.00 65 1011.2
20260508061524 10 323 6.4 16.1 0.00 0.36 0.00 66 1010.9
20260508061004 10 308 6.4 16.1 0.00 0.36 0.00 63 1010.8
20260508060503 10 285 6.4 16.1 0.00 0.38 0.00 61 1010.5
20260508060003 10 279 4.8 14.5 0.00 0.38 0.00 57 1010.7
20260508055504 10 297 3.2 12.9 0.00 0.38 0.00 61 1010.6
20260508055024 10 283 4.8 14.5 0.00 0.38 0.00 63 1010.3
20260508054503 9 270 4.8 14.5 0.00 0.38 0.00 66 1010.0
20260508054003 9 278 4.8 12.9 0.00 0.38 0.00 67 1009.9